User: anonymous   Login
Location: Bouchavesnes-Bergen
(49.9859°N, 2.9203°E)
Time: 23:41:37
(UTC+00:00)
Language:

Meteor 1-31 Rocket - Orbit

View from above orbital plane
View from above orbital plane
View from above satellite
View from above satellite

Ground track
Ground track

The orbit data is extracted from the following two-line orbital elements,

1 12586U 81065B   21129.53845681  .00000201  00000-0  15976-4 0  9992
2 12586  97.6551 117.6042 0018766   5.4094 354.7334 15.11031394167054
Epoch (UTC): 09 May 2021 12:55:22
Eccentricity: 0.0018766
inclination: 97.6551°
perigee height: 520 km
apogee height: 546 km
right ascension of ascending node: 117.6042°
argument of perigee: 5.4094°
revolutions per day: 15.11031394
mean anomaly at epoch: 354.7334°
orbit number at epoch: 16705

The dashed part of the orbit path shows where the satellite is in the earth's shadow,  

DLR